Theta_e
350 348 353 355 345 348 353 351 348 350 349 344 343 343 347 347 347 344 340 344 346 347 348 348 348 350 349 347 346 348 347 349 350 349 351 349 350 351 351 351 351 348 344 347 348 346 344 347 347
354 357 358 346 347 351 352 348 351 348 344 341 342 343 345 348 344 342 342 346 347 344 348 347 346 349 350 349 348 348 349 350 350 350 350 350 350 349 350 351 350 347 348 348 347 347 348 346 347
359 358 358 346 348 351 351 347 347 344 342 343 343 341 343 348 344 342 342 347 348 345 346 346 347 348 350 350 350 350 350 351 351 351 351 350 349 349 350 348 349 349 348 348 348 347 348 347 346
363 360 350 349 352 349 348 346 345 344 341 342 343 346 343 344 344 345 343 347 348 346 345 349 349 350 349 349 349 349 348 348 344 347 348 349 351 350 347 349 350 348 348 349 347 347 347 348 345
354 348 351 354 351 347 346 345 343 344 343 343 343 346 347 342 343 342 344 347 346 347 348 348 347 348 348 348 347 347 346 345 341 340 347 347 348 347 344 347 346 346 344 348 348 347 348 347 347
346 339 351 353 350 348 346 345 347 346 347 345 346 348 345 345 344 343 342 346 345 345 346 348 347 348 349 349 348 348 348 344 343 342 348 346 349 348 348 348 350 346 349 347 348 348 347 347 347
347 342 346 351 350 348 347 346 347 345 345 346 344 350 344 346 344 344 343 341 343 344 343 347 344 344 347 349 347 347 348 348 348 342 344 346 349 348 349 347 347 349 350 348 345 348 347 343 342
342 340 351 352 351 351 347 348 345 342 346 341 343 348 348 345 346 345 344 343 345 343 341 342 341 346 350 351 350 350 350 350 350 346 350 348 345 347 348 346 350 347 349 350 347 344 346 339 338
339 341 344 348 351 348 347 350 344 343 343 343 343 344 342 345 347 347 346 345 345 345 342 341 341 346 352 350 350 351 351 351 351 351 351 345 348 345 345 342 346 352 350 349 349 342 345 343 338
341 339 341 342 346 345 346 348 347 346 345 346 347 344 345 346 348 348 347 347 346 347 347 345 346 347 346 345 348 352 352 351 351 349 348 345 346 345 344 343 343 348 350 348 344 342 342 346 342
345 343 342 345 344 344 347 347 345 345 346 344 348 347 346 346 346 347 347 347 345 344 345 346 345 345 346 347 346 348 347 347 347 345 345 345 347 348 348 348 348 346 347 348 344 344 341 340 341
346 344 342 345 346 345 347 345 346 342 342 342 345 345 346 346 346 345 346 346 344 343 341 341 344 343 342 342 343 343 341 341 343 344 345 347 347 347 347 346 347 347 342 343 346 343 342 340 341
346 344 344 345 343 344 345 346 346 344 341 342 345 346 347 346 346 345 345 345 344 344 340 338 338 338 339 341 342 341 343 345 347 348 349 349 348 349 347 347 347 347 345 343 341 342 343 342 339
344 346 347 343 343 344 345 345 345 343 341 344 346 346 346 346 346 344 344 345 346 344 341 339 339 339 339 343 345 344 345 347 348 349 349 350 349 349 349 348 348 348 346 344 343 339 339 340 340
345 347 347 348 344 345 344 348 348 342 342 344 347 345 345 346 344 344 344 344 345 344 344 343 344 345 346 347 348 349 349 348 350 350 350 350 350 350 350 349 349 349 348 347 347 345 345 344 342
344 347 350 349 345 345 341 345 346 341 343 343 343 344 343 342 342 343 343 343 344 344 345 345 344 346 347 348 349 348 350 349 349 350 351 350 350 350 349 349 350 350 348 348 348 347 346 346 346
344 348 349 346 346 347 344 347 346 341 343 344 343 342 342 340 339 341 342 343 343 344 344 345 346 347 347 348 348 348 350 350 350 350 351 351 350 349 348 349 351 349 345 347 348 347 347 347 346
345 347 352 347 348 348 346 345 346 344 342 344 342 341 341 340 339 338 340 341 342 342 343 345 346 347 347 347 347 348 352 352 349 350 351 351 346 348 348 350 349 349 349 348 348 347 348 347 347
343 346 350 348 346 351 352 349 348 345 343 343 341 341 341 340 339 339 338 338 340 341 342 344 346 347 347 347 346 347 350 351 350 349 350 350 345 343 350 350 349 349 350 351 350 349 348 351 347
343 346 349 345 348 346 347 350 348 346 345 344 342 341 340 339 336 335 337 338 339 340 342 344 346 346 346 345 344 345 348 352 353 350 350 348 343 348 349 348 348 349 350 350 349 349 347 346 346
341 343 343 345 349 347 349 349 350 346 344 343 342 341 339 339 336 332 337 339 339 340 342 343 345 345 346 345 343 348 352 352 350 350 349 350 348 348 348 348 349 348 349 348 346 347 347 347 346
339 339 341 347 346 348 346 350 348 349 345 344 342 341 339 338 336 334 337 339 340 341 342 342 343 346 347 343 344 350 351 352 350 351 351 351 347 350 351 350 350 351 350 348 348 346 346 346 346
334 338 339 343 342 342 347 346 341 347 349 344 341 340 339 338 337 336 337 339 341 341 342 343 344 346 348 345 348 350 351 351 350 349 349 348 349 351 353 352 349 350 350 349 350 348 347 345 344
333 330 327 329 336 343 341 345 342 347 348 347 345 340 339 338 338 336 337 339 341 342 343 344 345 346 348 345 348 350 351 350 350 351 351 350 346 351 352 352 351 351 350 351 351 348 346 348 346
330 331 334 341 342 344 333 346 342 338 340 343 345 344 339 338 338 336 337 339 340 343 344 344 346 347 348 348 349 351 351 350 351 352 350 351 350 350 352 351 351 351 352 353 352 351 347 347 349
331 330 333 341 336 337 332 340 336 332 332 334 342 344 341 338 338 337 338 340 340 342 344 345 346 347 348 349 349 351 351 351 352 352 354 354 351 351 353 352 351 353 352 353 352 350 349 346 347
323 330 320 318 313 320 332 327 328 339 341 341 340 343 342 340 339 339 338 341 341 342 343 345 347 347 347 348 349 350 351 351 353 353 352 352 354 353 354 353 352 351 353 353 351 350 351 349 347
317 315 317 312 320 322 318 324 330 329 342 340 342 341 341 341 339 339 340 341 342 342 343 345 349 349 348 348 349 351 351 349 351 354 353 353 354 354 354 353 354 353 353 353 353 353 349 350 349
314 315 310 311 313 319 320 321 325 329 333 341 339 341 339 341 340 340 340 341 343 345 345 345 346 347 349 350 350 350 350 350 349 353 355 353 354 353 354 353 353 353 354 354 353 352 351 349 348
315 314 311 314 315 311 312 317 318 323 325 337 338 337 340 341 340 340 341 343 346 347 347 349 349 339 339 351 350 350 350 349 350 351 355 356 356 355 355 356 354 354 352 350 350 353 353 351 350
Wind_Speed
13 10 6 3 5 6 3 4 4 7 7 7 7 3 5 5 2 3 11 15 22 22 21 23 22 22 23 23 23 22 22 20 19 18 15 15 15 13 15 15 14 15 13 12 14 15 17 18 19
13 9 4 2 5 4 3 3 6 3 6 9 7 6 5 4 4 9 12 20 23 23 22 23 22 21 20 22 20 19 17 17 17 16 13 13 13 12 12 14 12 14 13 12 13 14 16 17 17
9 4 4 4 3 3 3 3 6 6 6 5 4 6 3 3 7 12 12 24 23 22 21 21 22 20 18 17 17 17 16 15 16 14 12 11 10 10 11 12 11 12 12 11 13 13 13 15 16
3 4 4 5 5 2 3 6 6 8 5 6 10 6 5 6 5 6 28 24 22 21 21 18 18 16 16 15 14 14 14 12 13 12 11 9 7 8 8 8 11 9 10 10 11 11 11 12 13
3 3 5 4 4 3 5 8 8 5 4 5 2 4 4 3 6 23 24 23 23 21 20 17 16 13 13 12 12 11 11 11 9 9 7 6 6 6 5 5 6 7 8 11 11 12 10 11 11
4 3 5 3 3 3 4 7 5 7 7 8 9 7 3 10 21 22 23 23 22 22 20 18 16 14 13 12 11 10 9 9 8 7 5 5 5 4 4 3 4 4 6 8 10 11 11 10 10
5 4 4 4 5 3 3 4 4 4 7 5 5 5 2 10 21 21 22 22 21 20 19 18 17 15 13 12 11 10 9 8 7 7 6 4 3 4 4 3 3 4 5 8 9 10 10 10 9
4 4 4 2 5 3 6 3 5 6 4 5 7 5 5 11 19 17 19 21 20 19 19 18 16 14 13 11 11 9 9 8 7 7 5 5 4 4 4 4 5 5 4 7 10 9 9 10 8
3 5 3 4 7 6 9 4 3 4 6 3 3 5 13 25 22 19 18 18 18 17 18 18 17 16 15 14 11 9 9 8 8 7 6 6 5 4 4 3 6 5 5 6 9 10 10 9 9
4 4 6 7 7 9 10 9 7 4 6 4 8 16 28 24 22 18 16 15 19 18 19 19 18 17 15 14 12 11 11 10 9 9 8 7 5 3 5 5 5 5 5 6 7 9 10 10 10
1 3 2 3 4 16 13 6 5 12 1 5 15 15 20 20 16 16 16 20 23 21 20 20 19 16 15 14 12 11 11 10 9 9 8 6 4 2 5 7 8 6 6 7 7 8 10 10 10
3 2 2 5 8 10 12 11 6 5 5 10 15 20 20 13 16 18 18 21 22 22 21 20 19 17 16 14 12 10 11 10 9 8 7 5 4 4 5 5 6 7 6 7 8 9 9 10 10
2 4 4 7 10 8 12 7 4 3 9 17 18 18 15 14 18 18 19 21 22 23 22 22 20 19 16 15 12 11 11 11 8 8 7 6 7 7 6 7 5 6 6 8 8 9 10 10 11
3 3 5 8 7 9 8 5 8 4 12 16 17 16 14 14 18 15 17 20 23 23 23 22 22 19 16 15 12 11 12 10 9 9 7 7 7 6 4 5 5 5 6 6 7 8 9 10 11
3 4 4 5 4 5 11 4 4 11 13 15 16 13 14 16 17 20 22 24 26 26 25 25 23 20 18 16 13 12 12 12 11 10 7 9 8 6 4 4 4 5 7 6 7 8 9 9 11
4 4 3 1 5 3 5 4 1 15 17 14 14 13 12 11 20 21 22 25 26 26 26 25 24 23 20 18 15 12 10 11 10 10 7 6 7 5 4 3 3 5 6 6 6 6 9 10 13
7 2 1 2 2 4 3 3 6 7 12 14 13 13 13 11 12 21 26 28 28 28 28 26 25 25 23 19 18 14 9 7 7 10 9 7 5 4 5 5 4 3 4 6 6 5 5 9 8
4 1 1 3 2 3 3 4 9 11 11 14 12 12 11 11 15 24 29 31 30 29 29 26 24 25 23 21 18 16 11 9 6 7 9 9 5 6 5 5 5 5 6 7 6 7 7 8 8
6 3 3 3 4 3 5 5 12 14 10 8 8 9 11 12 21 22 28 30 31 30 30 29 26 25 23 24 22 19 16 10 9 9 7 8 8 8 8 6 5 5 6 9 9 5 4 2 5
4 3 4 3 4 4 5 7 11 15 17 16 13 11 14 13 8 14 23 28 32 34 31 30 29 27 26 26 24 21 16 11 9 9 10 5 7 5 6 6 7 5 4 5 7 6 8 4 11
1 4 4 3 2 4 1 5 6 8 9 10 10 11 11 14 11 8 19 28 31 33 37 35 34 31 28 28 24 19 12 10 6 8 9 8 8 7 6 6 6 7 7 7 7 8 7 8 12
3 7 5 4 4 2 2 6 4 7 16 16 16 15 15 14 8 7 14 19 27 36 39 36 36 34 29 28 26 24 17 12 9 9 7 8 6 7 6 7 8 6 9 10 10 11 8 6 12
8 5 4 4 4 3 2 1 6 4 8 18 18 20 17 18 12 12 18 27 36 30 36 36 34 34 32 30 28 25 18 13 6 5 5 7 9 6 3 6 7 9 7 9 10 13 13 9 12
6 7 8 5 3 3 3 5 7 5 9 13 17 20 20 17 13 13 24 25 21 26 27 31 32 35 35 32 29 25 21 17 12 7 7 8 8 8 6 6 7 7 8 10 11 10 14 15 13
6 7 3 3 2 6 5 2 10 5 5 9 20 20 21 18 13 10 11 17 22 28 30 31 32 34 36 34 30 27 23 20 15 11 11 10 7 11 8 8 8 8 7 9 11 10 12 14 14
6 8 6 7 4 4 5 6 8 4 8 7 13 16 17 15 12 13 16 22 26 28 29 30 33 34 35 36 33 29 24 22 18 13 8 7 7 10 7 8 9 10 7 8 9 9 9 10 12
5 4 5 7 3 2 4 8 12 3 4 1 6 9 13 13 13 15 15 23 25 26 31 35 33 33 32 34 35 32 28 24 20 15 12 11 9 9 10 8 10 10 9 8 7 9 9 10 11
5 6 3 3 3 5 5 5 6 6 4 5 6 10 12 12 12 12 13 21 27 24 16 18 11 17 26 30 34 34 31 26 22 17 14 12 9 9 10 11 10 10 10 9 9 8 6 9 11
2 1 6 5 4 6 4 7 9 9 8 12 11 11 11 11 13 13 14 19 18 21 24 22 14 9 9 18 28 32 31 28 24 20 16 13 11 10 11 8 8 8 9 9 8 9 10 11 12
3 7 7 5 5 2 3 7 5 8 5 11 14 9 8 9 12 9 12 22 27 32 34 29 20 20 23 16 26 31 31 26 25 24 21 16 14 11 11 11 9 8 9 8 11 14 11 15 16
Wind_Direction
131 126 116 78 53 63 50 47 87 135 128 164 160 123 98 51 43 137 142 137 141 137 136 133 131 126 124 123 126 128 128 124 121 117 117 116 110 107 103 100 99 95 95 93 95 96 109 114 112
127 118 79 72 74 56 357 75 109 116 118 101 78 96 49 59 64 111 122 144 143 142 140 139 138 129 126 123 127 127 126 127 124 120 118 112 109 105 98 96 93 96 99 98 101 102 110 114 115
112 105 77 79 88 123 140 104 133 114 142 103 100 45 44 58 98 136 146 148 145 147 148 144 142 137 134 131 132 130 130 129 123 121 116 111 113 108 100 101 95 94 99 105 108 114 116 121 122
280 32 36 72 78 45 113 138 131 124 65 65 113 65 58 111 119 146 151 151 150 151 154 150 144 145 142 141 138 135 134 129 125 119 121 125 121 115 111 109 109 105 106 108 110 119 123 125 130
33 60 58 63 38 52 55 114 123 103 85 97 96 78 93 343 137 144 152 154 157 157 153 157 153 154 154 155 150 152 150 144 139 131 133 136 137 131 124 124 117 116 116 122 124 131 130 127 137
47 87 57 72 62 55 69 107 89 92 103 113 93 98 116 135 136 152 160 159 162 161 163 165 164 163 169 171 162 168 166 162 159 147 156 156 151 137 146 145 139 134 137 129 130 136 139 136 133
117 88 144 109 113 79 119 91 88 115 105 73 125 85 85 145 149 158 166 168 168 166 170 171 174 172 182 182 179 180 179 183 180 179 179 191 184 170 169 171 143 133 151 148 144 143 149 152 150
108 88 99 124 141 137 131 84 104 114 80 116 141 142 174 171 155 161 172 174 172 175 176 180 178 179 189 189 190 190 194 197 197 207 203 206 206 179 174 178 157 137 149 159 153 150 161 169 169
110 65 152 148 159 151 137 121 168 100 115 70 86 126 141 152 161 161 161 173 181 185 186 189 188 188 196 194 191 194 205 206 209 215 216 202 216 206 180 154 152 148 149 161 166 162 167 175 175
80 113 208 172 160 152 146 131 162 117 135 74 81 101 133 149 158 156 161 172 187 193 195 197 196 198 199 198 195 207 206 209 213 216 209 210 198 216 198 174 145 164 154 151 168 171 167 171 179
50 151 196 91 137 145 146 128 159 129 234 180 149 140 148 158 162 170 182 188 192 196 202 206 204 203 205 205 205 210 216 212 213 218 213 228 220 263 217 203 183 183 187 176 171 169 176 179 186
0 346 155 128 136 140 152 139 130 141 198 132 143 149 154 166 179 187 188 193 196 201 205 208 208 208 208 207 209 214 221 216 213 217 224 228 242 258 212 195 197 203 198 187 177 180 179 185 186
31 6 79 116 132 126 137 157 144 187 121 124 134 150 165 176 189 198 198 197 197 203 204 206 207 208 206 208 208 211 221 223 225 234 237 257 263 254 220 208 200 194 195 201 193 185 189 189 191
38 46 109 130 155 146 134 148 123 184 127 131 148 163 174 185 196 193 199 204 203 202 202 202 205 207 206 211 212 221 226 230 233 240 249 261 272 254 219 192 189 193 194 191 202 204 203 203 208
55 76 74 59 139 119 120 111 224 149 141 145 162 170 179 197 197 203 202 206 206 208 208 206 205 207 210 216 221 237 244 245 243 250 247 253 256 245 204 195 197 203 200 187 196 208 214 212 216
70 51 80 340 141 162 120 256 184 158 152 160 166 177 185 196 202 205 210 213 214 213 215 217 216 215 216 220 225 235 255 243 247 256 234 248 250 249 227 215 208 233 212 193 198 194 214 219 230
12 176 85 319 314 126 113 232 166 163 168 171 176 185 189 201 206 211 214 218 218 218 221 222 223 223 218 221 228 235 236 225 241 249 236 237 231 236 236 220 221 210 184 197 217 210 222 226 222
198 131 347 270 228 152 145 181 168 176 177 189 193 191 194 199 215 210 215 220 224 223 221 221 227 230 221 219 218 220 228 231 244 231 233 223 239 228 233 224 233 227 230 227 221 237 243 250 235
122 130 149 240 203 141 203 188 179 184 184 196 204 216 216 209 221 212 212 216 221 224 220 220 217 218 213 205 204 214 222 232 243 230 232 238 257 227 209 231 235 243 268 258 233 229 219 120 171
86 135 223 279 167 148 213 226 183 182 200 193 200 213 217 227 205 209 208 207 213 220 220 218 215 213 211 210 213 216 218 229 236 231 222 234 220 216 214 217 228 228 267 190 201 200 157 130 160
350 194 196 192 79 23 114 292 165 202 196 200 213 217 232 227 208 188 194 196 202 209 215 217 216 215 219 217 213 212 210 225 236 227 228 231 220 222 225 214 216 227 240 225 211 197 179 141 179
227 209 202 132 103 224 353 281 243 196 201 202 207 214 224 228 208 180 185 188 197 212 217 216 214 215 217 215 211 211 212 211 237 250 247 229 210 217 228 226 235 245 239 228 220 202 203 187 178
226 160 167 98 78 38 245 37 269 140 212 212 209 211 213 225 207 182 187 195 205 206 211 213 213 213 215 213 213 217 222 227 232 227 230 229 245 248 226 231 231 241 241 236 230 217 214 216 200
127 68 40 58 75 322 229 149 278 193 211 215 212 208 208 210 203 193 194 198 198 201 203 209 212 212 213 214 216 221 223 225 227 251 270 281 252 228 236 230 229 234 239 234 225 224 228 228 226
88 77 18 358 357 232 322 119 239 238 240 211 204 206 205 200 194 174 168 179 187 198 201 208 208 212 214 215 219 223 225 219 227 247 267 269 248 217 234 237 240 234 237 229 232 242 231 236 239
172 153 152 179 211 242 57 239 251 284 293 244 215 207 198 188 180 178 183 182 189 194 194 199 206 211 215 216 219 224 227 226 233 239 225 251 253 231 247 258 254 244 243 245 238 236 252 243 249
192 190 169 99 20 86 217 284 307 307 4 251 205 159 188 184 177 183 179 186 190 189 195 202 204 209 216 217 220 223 223 227 230 231 230 245 249 240 237 271 270 241 240 253 251 255 252 255 262
152 159 95 6 134 263 276 280 244 292 240 248 223 200 196 186 180 181 181 186 194 190 167 169 188 211 223 220 222 224 226 230 235 243 238 239 239 242 255 267 265 235 244 246 242 265 277 259 253
39 62 43 112 121 185 241 262 220 245 193 210 217 207 194 180 187 177 183 180 158 145 143 170 182 183 256 253 241 229 230 232 237 238 239 235 238 248 262 262 255 244 255 254 258 267 256 244 246
138 178 150 134 228 185 198 265 243 248 256 209 213 198 196 195 187 171 139 144 141 142 148 158 167 192 241 273 257 244 239 233 236 234 237 242 248 257 265 256 259 251 267 267 258 254 250 241 235